Tenerife > ESTACION METEOROLÓGICA Valle Grande - Santa Cruz de Tenerife

DATOS ACTUALES Online

Ultima actulizacion 14 minutos

20.6 ºC

Temperatura

93

Humedad (%)

985.16

Presión (mb)

26.6

Precipitación (mm)

5.3 S

Viento (Km/h)

DATOS DIARIOS

Temperatura últimas 24 horas (ºC)

Humedad últimas 24 horas (%)

Presión atmosférica últimas 24 horas (mb)

Precipitaciones últimas 23 horas (mm)

Viento últimas 24 horas (Km/h)

Hora Temperatura (°C) ºC Precipitación (mm) mm Presión (mb) mb Humedad (%) % Viento (Km/h) km/h
24 - 23:00 22 0 988 74 8.5 SW
25 - 00:00 22 0 988 74 11.2 SO
25 - 01:00 22 0 987 71 7.1 N
25 - 02:00 21.8 0 987 74 7.1 S
25 - 03:00 21.6 0 986 78 3.8 SW
25 - 04:00 21 0.1 986 81 7.2 SW
25 - 05:00 20.5 1.3 986 86 5 SW
25 - 06:00 20 1.8 986 85 4.7 SW
25 - 07:00 19.4 2.8 986 87 6 W
25 - 08:00 19.6 4.5 986 88 13.8 SO
25 - 09:00 19.8 7 987 88 5.5 NW
25 - 10:00 20.1 8.6 988 91 4.5 SO
25 - 11:00 19.9 11 987 92 8.5 S
25 - 12:00 19.2 14.7 988 95 6.4 SO
25 - 13:00 19.7 17.2 987 95 7.2 O
25 - 14:00 20.1 18.7 986 94 4.6 SO
25 - 15:00 20.3 19.7 986 95 6.7 SO
25 - 16:00 20.7 20 985 94 5.8 W
25 - 17:00 20.8 20.8 985 94 8.5 SO
25 - 18:00 20 21.8 985 94 11.7 SO
25 - 19:00 20.2 24 985 94 4 W
25 - 20:00 20.1 25.8 985 94 12.8 S
25 - 21:00 20.5 26.3 985 93 2.7 W
25 - 22:00 20.6 26.6 985 93 5.3 S
25 - 23:00
Apalmet utiliza cookies propias y de terceros para mejorar la usabilidad y la experiencia web. Política de cookies.